Time,TemperatureF,DewpointF,PressureIn,WindDirection,WindDirectionDegrees,WindSpeedMPH,WindSpeedGustMPH,Humidity,HourlyPrecipIn,Conditions,Clouds,dailyrainin,SolarRadiationWatts/m^2,SoftwareType,DateUTC
2013-05-17 00:00:00,60.0,40.0,-100.00,SE,135,2.0,-999.0,48,-99.99,,,-99.99,0.000000,,2013-05-17 04:00:00,
2013-05-17 00:43:00,60.0,40.0,-100.00,SE,135,2.0,-999.0,48,-99.99,,,-99.99,0.000000,,2013-05-17 04:43:00,
2013-05-17 00:53:00,60.0,40.0,-100.00,SE,135,2.0,-999.0,48,-99.99,,,-99.99,0.000000,,2013-05-17 04:53:00,
2013-05-17 01:00:00,58.0,42.0,-100.00,SE,135,2.0,-999.0,54,-99.99,,,-99.99,0.000000,,2013-05-17 05:00:00,
2013-05-17 01:43:00,58.0,42.0,-100.00,SE,135,2.0,-999.0,54,-99.99,,,-99.99,0.000000,,2013-05-17 05:43:00,
2013-05-17 01:52:00,58.0,42.0,-100.00,SE,135,2.0,-999.0,54,-99.99,,,-99.99,0.000000,,2013-05-17 05:52:00,
2013-05-17 02:00:00,57.0,43.0,-100.00,SSE,157,2.0,-999.0,58,-99.99,,,-99.99,0.000000,,2013-05-17 06:00:00,
2013-05-17 02:42:00,57.0,43.0,-100.00,SSE,157,2.0,-999.0,58,-99.99,,,-99.99,0.000000,,2013-05-17 06:42:00,
2013-05-17 02:52:00,57.0,43.0,-100.00,SSE,157,2.0,-999.0,58,-99.99,,,-99.99,0.000000,,2013-05-17 06:52:00,
2013-05-17 03:00:00,58.0,42.0,-100.00,ESE,112,3.0,-999.0,55,-99.99,,,-99.99,0.000000,,2013-05-17 07:00:00,
2013-05-17 03:43:00,58.0,42.0,-100.00,ESE,112,3.0,-999.0,55,-99.99,,,-99.99,0.000000,,2013-05-17 07:43:00,
2013-05-17 03:53:00,58.0,42.0,-100.00,ESE,112,3.0,-999.0,55,-99.99,,,-99.99,0.000000,,2013-05-17 07:53:00,
2013-05-17 04:00:00,59.0,42.0,-100.00,ESE,112,4.0,-999.0,54,-99.99,,,-99.99,0.000000,,2013-05-17 08:00:00,
2013-05-17 04:43:00,59.0,42.0,-100.00,ESE,112,4.0,-999.0,54,-99.99,,,-99.99,0.000000,,2013-05-17 08:43:00,
2013-05-17 04:52:00,59.0,42.0,-100.00,ESE,112,4.0,-999.0,54,-99.99,,,-99.99,0.000000,,2013-05-17 08:52:00,
2013-05-17 05:00:00,59.0,43.0,-100.00,SE,135,7.0,-999.0,55,-99.99,,,-99.99,0.000000,,2013-05-17 09:00:00,
2013-05-17 05:42:00,59.0,43.0,-100.00,SE,135,7.0,-999.0,55,-99.99,,,-99.99,0.000000,,2013-05-17 09:42:00,
2013-05-17 05:53:00,59.0,43.0,-100.00,SE,135,7.0,-999.0,55,-99.99,,,-99.99,0.000000,,2013-05-17 09:53:00,
2013-05-17 06:00:00,59.0,44.0,-100.00,SE,135,8.0,-999.0,57,-99.99,,,-99.99,0.000000,,2013-05-17 10:00:00,
2013-05-17 06:42:00,59.0,44.0,-100.00,SE,135,8.0,-999.0,57,-99.99,,,-99.99,0.000000,,2013-05-17 10:42:00,
2013-05-17 06:54:00,59.0,44.0,-100.00,SE,135,8.0,-999.0,57,-99.99,,,-99.99,0.000000,,2013-05-17 10:54:00,
2013-05-17 07:00:00,59.0,43.0,-100.00,SSE,157,9.0,-999.0,55,-99.99,,,-99.99,13.920000,,2013-05-17 11:00:00,
2013-05-17 07:42:00,59.0,43.0,-100.00,SSE,157,9.0,-999.0,55,-99.99,,,-99.99,13.920000,,2013-05-17 11:42:00,
2013-05-17 07:53:00,59.0,43.0,-100.00,SSE,157,9.0,-999.0,55,-99.99,,,-99.99,13.920000,,2013-05-17 11:53:00,
2013-05-17 08:00:00,59.0,42.0,-100.00,SSE,157,10.0,-999.0,52,-99.99,,,-99.99,75.400002,,2013-05-17 12:00:00,
2013-05-17 08:43:00,59.0,42.0,-100.00,SSE,157,10.0,-999.0,52,-99.99,,,-99.99,75.400002,,2013-05-17 12:43:00,
2013-05-17 08:53:00,59.0,42.0,-100.00,SSE,157,10.0,-999.0,52,-99.99,,,-99.99,75.400002,,2013-05-17 12:53:00,
2013-05-17 09:00:00,61.0,40.0,-100.00,SSE,157,12.0,-999.0,47,-99.99,,,-99.99,223.880005,,2013-05-17 13:00:00,
2013-05-17 09:42:00,61.0,40.0,-100.00,SSE,157,12.0,-999.0,47,-99.99,,,-99.99,223.880005,,2013-05-17 13:42:00,
2013-05-17 09:52:00,61.0,40.0,-100.00,SSE,157,12.0,-999.0,47,-99.99,,,-99.99,223.880005,,2013-05-17 13:52:00,
2013-05-17 10:00:00,64.0,40.0,-100.00,SSE,157,11.0,-999.0,41,-99.99,,,-99.99,409.480011,,2013-05-17 14:00:00,
2013-05-17 10:43:00,64.0,40.0,-100.00,SSE,157,11.0,-999.0,41,-99.99,,,-99.99,409.480011,,2013-05-17 14:43:00,
2013-05-17 10:53:00,64.0,40.0,-100.00,SSE,157,11.0,-999.0,41,-99.99,,,-99.99,409.480011,,2013-05-17 14:53:00,
2013-05-17 11:00:00,67.0,43.0,-100.00,SSE,157,8.0,-999.0,41,-99.99,,,-99.99,316.679993,,2013-05-17 15:00:00,
2013-05-17 11:47:00,67.0,43.0,-100.00,SSE,157,8.0,-999.0,41,-99.99,,,-99.99,316.679993,,2013-05-17 15:47:00,
2013-05-17 11:57:00,67.0,43.0,-100.00,SSE,157,8.0,-999.0,41,-99.99,,,-99.99,316.679993,,2013-05-17 15:57:00,
2013-05-17 12:00:00,68.0,45.0,-100.00,South,180,6.0,-999.0,43,-99.99,,,-99.99,249.399994,,2013-05-17 16:00:00,
2013-05-17 12:50:00,68.0,45.0,-100.00,South,180,6.0,-999.0,43,-99.99,,,-99.99,249.399994,,2013-05-17 16:50:00,
2013-05-17 12:56:00,68.0,45.0,-100.00,South,180,6.0,-999.0,43,-99.99,,,-99.99,249.399994,,2013-05-17 16:56:00,
2013-05-17 13:00:00,70.0,-99.9,-100.00,SSE,157,6.0,-999.0,44,-99.99,,,-99.99,302.760010,,2013-05-17 17:00:00,
2013-05-17 13:49:00,70.0,47.0,-100.00,SSE,157,6.0,-999.0,44,-99.99,,,-99.99,302.760010,,2013-05-17 17:49:00,
2013-05-17 14:00:00,72.0,-99.9,-100.00,SE,135,6.0,-999.0,41,-99.99,,,-99.99,377.000000,,2013-05-17 18:00:00,
2013-05-17 14:50:00,-999.0,-99.9,-100.00,SE,135,6.0,-999.0,41,-99.99,,,-99.99,377.000000,,2013-05-17 18:50:00,
2013-05-17 15:00:00,-999.0,-99.9,-100.00,SE,135,6.0,-999.0,40,-99.99,,,-99.99,272.600006,,2013-05-17 19:00:00,
2013-05-17 15:51:00,73.0,48.0,-100.00,SE,135,6.0,-999.0,40,-99.99,,,-99.99,272.600006,,2013-05-17 19:51:00,
2013-05-17 16:00:00,73.0,48.0,-100.00,SE,135,4.0,-999.0,41,-99.99,,,-99.99,187.919998,,2013-05-17 20:00:00,
2013-05-17 16:50:00,73.0,48.0,-100.00,SE,135,4.0,-999.0,41,-99.99,,,-99.99,187.919998,,2013-05-17 20:50:00,
2013-05-17 16:58:00,73.0,48.0,-100.00,SE,135,4.0,-999.0,41,-99.99,,,-99.99,187.919998,,2013-05-17 20:58:00,
2013-05-17 17:00:00,76.0,48.0,-100.00,East,90,4.0,-999.0,37,-99.99,,,-99.99,305.079987,,2013-05-17 21:00:00,
2013-05-17 17:49:00,76.0,48.0,-100.00,East,90,4.0,-999.0,37,-99.99,,,-99.99,305.079987,,2013-05-17 21:49:00,
2013-05-17 17:58:00,76.0,48.0,-100.00,East,90,4.0,-999.0,37,-99.99,,,-99.99,305.079987,,2013-05-17 21:58:00,
2013-05-17 18:00:00,78.0,47.0,-100.00,East,90,5.0,-999.0,33,-99.99,,,-99.99,238.960007,,2013-05-17 22:00:00,
2013-05-17 18:47:00,78.0,47.0,-100.00,East,90,5.0,-999.0,33,-99.99,,,-99.99,238.960007,,2013-05-17 22:47:00,
2013-05-17 18:55:00,78.0,47.0,-100.00,East,90,5.0,-999.0,33,-99.99,,,-99.99,238.960007,,2013-05-17 22:55:00,
2013-05-17 19:00:00,76.0,50.0,-100.00,ENE,67,7.0,-999.0,40,-99.99,,,-99.99,186.759995,,2013-05-17 23:00:00,
2013-05-17 19:47:00,76.0,50.0,-100.00,ENE,67,7.0,-999.0,40,-99.99,,,-99.99,186.759995,,2013-05-17 23:47:00,
2013-05-17 19:54:00,76.0,50.0,-100.00,ENE,67,7.0,-999.0,40,-99.99,,,-99.99,186.759995,,2013-05-17 23:54:00,
2013-05-17 20:00:00,72.0,49.0,-100.00,East,90,6.0,-999.0,44,-99.99,,,-99.99,92.800003,,2013-05-18 00:00:00,
2013-05-17 20:45:00,72.0,49.0,-100.00,East,90,6.0,-999.0,44,-99.99,,,-99.99,92.800003,,2013-05-18 00:45:00,
2013-05-17 20:54:00,72.0,49.0,-100.00,East,90,6.0,-999.0,44,-99.99,,,-99.99,92.800003,,2013-05-18 00:54:00,
2013-05-17 21:00:00,71.0,48.0,-100.00,ESE,112,6.0,-999.0,44,-99.99,,,-99.99,31.320000,,2013-05-18 01:00:00,
2013-05-17 21:43:00,71.0,48.0,-100.00,ESE,112,6.0,-999.0,44,-99.99,,,-99.99,31.320000,,2013-05-18 01:43:00,
2013-05-17 21:52:00,71.0,48.0,-100.00,ESE,112,6.0,-999.0,44,-99.99,,,-99.99,31.320000,,2013-05-18 01:52:00,
2013-05-17 22:00:00,68.0,48.0,-100.00,SE,135,5.0,-999.0,48,-99.99,,,-99.99,0.000000,,2013-05-18 02:00:00,
2013-05-17 22:43:00,68.0,48.0,-100.00,SE,135,5.0,-999.0,48,-99.99,,,-99.99,0.000000,,2013-05-18 02:43:00,
2013-05-17 22:54:00,68.0,48.0,-100.00,SE,135,5.0,-999.0,48,-99.99,,,-99.99,0.000000,,2013-05-18 02:54:00,
2013-05-17 23:00:00,69.0,46.0,-100.00,SSE,157,6.0,-999.0,44,-99.99,,,-99.99,0.000000,,2013-05-18 03:00:00,
2013-05-17 23:43:00,69.0,46.0,-100.00,SSE,157,6.0,-999.0,44,-99.99,,,-99.99,0.000000,,2013-05-18 03:43:00,
2013-05-17 23:53:00,69.0,46.0,-100.00,SSE,157,6.0,-999.0,44,-99.99,,,-99.99,0.000000,,2013-05-18 03:53:00,